Location: Fort Worth, Tx
(32.7431°N, 97.3695°W)
Time: 06:54:26
(UTC-05:00)

Explorer 11/Cluster Stage 4 - Pass Details

Date: 09 February 2026
Orbit: 463 x 1176 km, 28.8° (Epoch: 5 March)

Event Time Altitude Azimuth Distance (km) Brightness Sun altitude
Rises 20:12:40 0° 262° (W) 2,749 11.4 -13.7°
Reaches altitude 10° 20:14:47 10° 257° (WSW) 1,938 10.0 -14.2°
Maximum altitude 20:19:12 55° 180° (S) 826 6.7 -15.1°
Enters shadow 20:22:36 21° 110° (ESE) 1,646 7.7 -15.8°
